,,PA_Meas_PMT16A,,PR_Meas_QMR101_102,,RH_Meas_QMH101,,SR_Meas_QMS101,,TA_Meas_QMH101,,GenWind,,GenWind,
time,status,PA,status,PR,status,RH,status,SR,status,TA,status,DirAvg,status,SpdAvg,
2013-10-01, 00:00:04,VALID,917.722,VALID,0,VALID,91.5801,VALID,0,VALID,19.3143,VALID,132,VALID,0,
2013-10-01, 00:01:04,VALID,917.728,VALID,0,VALID,92.0756,VALID,0,VALID,19.2738,VALID,132,VALID,0,
2013-10-01, 00:02:04,VALID,917.713,VALID,0,VALID,92.5102,VALID,0,VALID,19.2348,VALID,131,VALID,0,
2013-10-01, 00:03:04,VALID,917.678,VALID,0,VALID,92.7389,VALID,0,VALID,19.1973,VALID,132,VALID,0,
2013-10-01, 00:04:04,VALID,917.686,VALID,0,VALID,93.0285,VALID,0,VALID,19.1583,VALID,132,VALID,0,
2013-10-01, 00:05:04,VALID,917.632,VALID,0,VALID,93.425,VALID,0,VALID,19.1178,VALID,131,VALID,0,
2013-10-01, 00:06:04,VALID,917.594,VALID,0,VALID,93.6384,VALID,0,VALID,19.0998,VALID,131,VALID,0,
2013-10-01, 00:07:04,VALID,917.581,VALID,0,VALID,93.8138,VALID,0,VALID,19.0983,VALID,131,VALID,0,
2013-10-01, 00:08:04,VALID,917.615,VALID,0,VALID,93.8519,VALID,0,VALID,19.0998,VALID,131,VALID,0,
2013-10-01, 00:09:04,VALID,917.623,VALID,0,VALID,93.7756,VALID,0,VALID,19.0788,VALID,131,VALID,0,
2013-10-01, 00:10:04,VALID,917.616,VALID,0,VALID,93.6689,VALID,0,VALID,19.0398,VALID,131,VALID,0,
2013-10-01, 00:11:04,VALID,917.591,VALID,0,VALID,93.6918,VALID,0,VALID,19.0203,VALID,131,VALID,0,
2013-10-01, 00:12:04,VALID,917.576,VALID,0,VALID,93.6003,VALID,0,VALID,19.0398,VALID,141,VALID,0,
2013-10-01, 00:13:04,VALID,917.568,VALID,0,VALID,93.4097,VALID,0,VALID,19.0203,VALID,138,VALID,0,
2013-10-01, 00:14:04,VALID,917.525,VALID,0,VALID,92.9218,VALID,0,VALID,18.9828,VALID,99,VALID,0,
2013-10-01, 00:15:04,VALID,917.535,VALID,0,VALID,92.8532,VALID,0,VALID,18.8839,VALID,99,VALID,0,
2013-10-01, 00:16:04,VALID,917.511,VALID,0,VALID,93.0514,VALID,0,VALID,18.8853,VALID,104,VALID,0,
2013-10-01, 00:17:04,VALID,917.479,VALID,0,VALID,93.1124,VALID,0,VALID,18.9243,VALID,130,VALID,0,
2013-10-01, 00:18:04,VALID,917.48,VALID,0,VALID,92.9371,VALID,0.107441,VALID,18.9424,VALID,126,VALID,0,
2013-10-01, 00:19:04,VALID,917.442,VALID,0,VALID,92.6855,VALID,0,VALID,18.9828,VALID,128,VALID,0,
2013-10-01, 00:20:04,VALID,917.439,VALID,0,VALID,92.5406,VALID,0,VALID,18.9619,VALID,134,VALID,0,
2013-10-01, 00:21:04,VALID,917.438,VALID,0,VALID,92.4339,VALID,0,VALID,18.9229,VALID,134,VALID,0,
2013-10-01, 00:22:04,VALID,917.408,VALID,0,VALID,92.5635,VALID,0,VALID,18.9243,VALID,139,VALID,0,
2013-10-01, 00:23:04,VALID,917.384,VALID,0,VALID,92.8151,VALID,0,VALID,18.8839,VALID,141,VALID,0,
2013-10-01, 00:24:04,VALID,917.366,VALID,0,VALID,92.9828,VALID,0,VALID,18.8644,VALID,139,VALID,0,
2013-10-01, 00:25:04,VALID,917.372,VALID,0,VALID,93.303,VALID,0,VALID,18.8449,VALID,134,VALID,0,
2013-10-01, 00:26:04,VALID,917.35,VALID,0,VALID,93.5851,VALID,0,VALID,18.8449,VALID,140,VALID,0,
2013-10-01, 00:27:04,VALID,917.349,VALID,0,VALID,93.7909,VALID,0,VALID,18.8254,VALID,141,VALID,0,
2013-10-01, 00:28:04,VALID,917.333,VALID,0,VALID,93.9052,VALID,0,VALID,18.8254,VALID,140,VALID,0,
2013-10-01, 00:29:04,VALID,917.348,VALID,0,VALID,94.2026,VALID,0.107441,VALID,18.9034,VALID,143,VALID,0,
2013-10-01, 00:30:04,VALID,917.304,VALID,0,VALID,94.073,VALID,0.107441,VALID,18.9229,VALID,143,VALID,0,
2013-10-01, 00:31:04,VALID,917.304,VALID,0,VALID,93.9967,VALID,0,VALID,18.9034,VALID,143,VALID,0,
2013-10-01, 00:32:04,VALID,917.291,VALID,0,VALID,93.9662,VALID,0,VALID,18.9229,VALID,143,VALID,0,
2013-10-01, 00:33:04,VALID,917.282,VALID,0,VALID,94.0043,VALID,0,VALID,18.9034,VALID,143,VALID,0,
2013-10-01, 00:34:04,VALID,917.26,VALID,0,VALID,94.0196,VALID,0,VALID,18.9034,VALID,143,VALID,0,
2013-10-01, 00:35:04,VALID,917.299,VALID,0,VALID,94.0043,VALID,0,VALID,18.9034,VALID,143,VALID,0,
2013-10-01, 00:36:04,VALID,917.279,VALID,0,VALID,93.9815,VALID,0,VALID,18.8839,VALID,143,VALID,0,
2013-10-01, 00:37:04,VALID,917.313,VALID,0,VALID,94.0043,VALID,0,VALID,18.9229,VALID,143,VALID,0,
2013-10-01, 00:38:04,VALID,917.292,VALID,0,VALID,93.9205,VALID,0,VALID,18.9229,VALID,143,VALID,0,
2013-10-01, 00:39:04,VALID,917.27,VALID,0,VALID,93.768,VALID,0,VALID,18.9229,VALID,132,VALID,0,
2013-10-01, 00:40:04,VALID,917.273,VALID,0,VALID,93.6994,VALID,0,VALID,18.8839,VALID,128,VALID,0,
2013-10-01, 00:41:04,VALID,917.264,VALID,0,VALID,93.6537,VALID,0,VALID,18.8644,VALID,132,VALID,0,
2013-10-01, 00:42:04,VALID,917.238,VALID,0,VALID,93.6613,VALID,0,VALID,18.8463,VALID,131,VALID,0,
2013-10-01, 00:43:04,VALID,917.231,VALID,0,VALID,93.6003,VALID,0,VALID,18.7864,VALID,130,VALID,0,
2013-10-01, 00:44:04,VALID,917.215,VALID,0,VALID,93.6613,VALID,0.107441,VALID,18.7474,VALID,125,VALID,0,
2013-10-01, 00:45:04,VALID,917.178,VALID,0,VALID,93.829,VALID,0,VALID,18.7084,VALID,123,VALID,0,
2013-10-01, 00:46:04,VALID,917.186,VALID,0,VALID,93.9815,VALID,0,VALID,18.6889,VALID,120,VALID,0,
2013-10-01, 00:47:04,VALID,917.197,VALID,0,VALID,94.1873,VALID,0.107441,VALID,18.6694,VALID,123,VALID,0,
2013-10-01, 00:48:04,VALID,917.213,VALID,0,VALID,94.294,VALID,0,VALID,18.6694,VALID,127,VALID,0,
2013-10-01, 00:49:04,VALID,917.184,VALID,0,VALID,94.3855,VALID,0,VALID,18.6694,VALID,134,VALID,0,
2013-10-01, 00:50:04,VALID,917.151,VALID,0,VALID,94.4694,VALID,0.107441,VALID,18.6694,VALID,131,VALID,0,
2013-10-01, 00:51:04,VALID,917.164,VALID,0,VALID,94.4313,VALID,0,VALID,18.6109,VALID,121,VALID,0,
2013-10-01, 00:52:04,VALID,917.145,VALID,0,VALID,94.538,VALID,0,VALID,18.6319,VALID,128,VALID,0,
2013-10-01, 00:53:04,VALID,917.159,VALID,0,VALID,94.6447,VALID,0.107441,VALID,18.6109,VALID,125,VALID,0,
2013-10-01, 00:54:04,VALID,917.157,VALID,0,VALID,94.6905,VALID,0,VALID,18.5914,VALID,127,VALID,0,
2013-10-01, 00:55:04,VALID,917.128,VALID,0,VALID,94.6905,VALID,0,VALID,18.6124,VALID,126,VALID,0,
2013-10-01, 00:56:04,VALID,917.11,VALID,0,VALID,94.6752,VALID,0,VALID,18.6319,VALID,124,VALID,0,
2013-10-01, 00:57:04,VALID,917.096,VALID,0,VALID,94.66,VALID,0,VALID,18.6319,VALID,119,VALID,0,
2013-10-01, 00:58:04,VALID,917.091,VALID,0,VALID,94.5913,VALID,0,VALID,18.6109,VALID,120,VALID,0,
2013-10-01, 00:59:04,VALID,917.096,VALID,0,VALID,94.5685,VALID,0,VALID,18.6304,VALID,120,VALID,0,
2013-10-01, 01:00:04,VALID,917.088,VALID,0,VALID,94.4465,VALID,0,VALID,18.6513,VALID,126,VALID,0,
2013-10-01, 01:01:04,VALID,917.104,VALID,0,VALID,94.3855,VALID,0,VALID,18.6499,VALID,130,VALID,0,
2013-10-01, 01:02:04,VALID,917.102,VALID,0,VALID,94.2254,VALID,0,VALID,18.6889,VALID,130,VALID,0,
2013-10-01, 01:03:04,VALID,917.059,VALID,0,VALID,94.073,VALID,0,VALID,18.6903,VALID,138,VALID,0,
2013-10-01, 01:04:04,VALID,917.06,VALID,0,VALID,93.8976,VALID,0,VALID,18.6903,VALID,130,VALID,0,
2013-10-01, 01:05:04,VALID,917.051,VALID,0,VALID,93.829,VALID,0.107441,VALID,18.6889,VALID,137,VALID,0,
2013-10-01, 01:06:04,VALID,917.042,VALID,0,VALID,93.7147,VALID,0,VALID,18.6708,VALID,139,VALID,0,
2013-10-01, 01:07:04,VALID,917.008,VALID,0,VALID,93.7756,VALID,0,VALID,18.6694,VALID,138,VALID,0,
2013-10-01, 01:08:04,VALID,916.996,VALID,0,VALID,93.8366,VALID,0,VALID,18.6889,VALID,138,VALID,0,
2013-10-01, 01:09:04,VALID,916.98,VALID,0,VALID,93.8976,VALID,0,VALID,18.7084,VALID,138,VALID,0,
2013-10-01, 01:10:04,VALID,916.944,VALID,0,VALID,94.0196,VALID,0,VALID,18.7474,VALID,138,VALID,0,
2013-10-01, 01:11:04,VALID,916.921,VALID,0,VALID,94.073,VALID,0,VALID,18.8268,VALID,138,VALID,0,
2013-10-01, 01:12:04,VALID,916.876,VALID,0,VALID,93.9662,VALID,0,VALID,18.8463,VALID,138,VALID,0,
2013-10-01, 01:13:04,VALID,916.871,VALID,0,VALID,93.7985,VALID,0,VALID,18.8463,VALID,138,VALID,0,
2013-10-01, 01:14:04,VALID,916.826,VALID,0,VALID,93.7299,VALID,0,VALID,18.8658,VALID,138,VALID,0,
2013-10-01, 01:15:04,VALID,916.797,VALID,0,VALID,93.6689,VALID,0,VALID,18.8644,VALID,138,VALID,0,
2013-10-01, 01:16:04,VALID,916.782,VALID,0,VALID,93.5546,VALID,0,VALID,18.8839,VALID,138,VALID,0,
2013-10-01, 01:17:04,VALID,916.803,VALID,0,VALID,93.4173,VALID,0,VALID,18.9229,VALID,138,VALID,0,
2013-10-01, 01:18:04,VALID,916.766,VALID,0,VALID,93.1963,VALID,0,VALID,18.9424,VALID,138,VALID,0,
2013-10-01, 01:19:04,VALID,916.74,VALID,0,VALID,93.0438,VALID,0,VALID,18.9424,VALID,138,VALID,0,
2013-10-01, 01:20:04,VALID,916.736,VALID,0,VALID,92.8608,VALID,0,VALID,18.9619,VALID,138,VALID,0,
2013-10-01, 01:21:04,VALID,916.72,VALID,0,VALID,92.7389,VALID,0,VALID,19.0023,VALID,138,VALID,0,
2013-10-01, 01:22:04,VALID,916.727,VALID,0,VALID,92.6245,VALID,0,VALID,19.0413,VALID,138,VALID,0,
2013-10-01, 01:23:04,VALID,916.722,VALID,0,VALID,92.4492,VALID,0,VALID,19.0788,VALID,138,VALID,0,
2013-10-01, 01:24:04,VALID,916.718,VALID,0,VALID,92.2205,VALID,0,VALID,19.1373,VALID,138,VALID,0,
2013-10-01, 01:25:04,VALID,916.715,VALID,0,VALID,91.8698,VALID,0,VALID,19.1958,VALID,138,VALID,0,
2013-10-01, 01:26:04,VALID,916.684,VALID,0,VALID,91.5496,VALID,0.107441,VALID,19.2153,VALID,138,VALID,0,
2013-10-01, 01:27:04,VALID,916.68,VALID,0,VALID,91.4048,VALID,0,VALID,19.1958,VALID,138,VALID,0,
2013-10-01, 01:28:04,VALID,916.674,VALID,0,VALID,91.3285,VALID,0,VALID,19.1568,VALID,138,VALID,0,
2013-10-01, 01:29:04,VALID,916.707,VALID,0,VALID,91.3895,VALID,0,VALID,19.1583,VALID,138,VALID,0,
2013-10-01, 01:30:04,VALID,916.684,VALID,0,VALID,91.3895,VALID,0,VALID,19.0983,VALID,138,VALID,0,
2013-10-01, 01:31:04,VALID,916.697,VALID,0,VALID,91.4429,VALID,0,VALID,19.0983,VALID,138,VALID,0,
2013-10-01, 01:32:04,VALID,916.715,VALID,0,VALID,91.542,VALID,0,VALID,19.0593,VALID,138,VALID,0,
2013-10-01, 01:33:04,VALID,916.67,VALID,0,VALID,91.5877,VALID,0.107441,VALID,19.0398,VALID,138,VALID,0,
2013-10-01, 01:34:04,VALID,916.647,VALID,0,VALID,91.6335,VALID,0.107441,VALID,19.0203,VALID,138,VALID,0,
2013-10-01, 01:35:04,VALID,916.646,VALID,0,VALID,91.7173,VALID,0,VALID,18.9633,VALID,138,VALID,0,
2013-10-01, 01:36:04,VALID,916.611,VALID,0,VALID,91.9613,VALID,0,VALID,18.9243,VALID,138,VALID,0,
2013-10-01, 01:37:04,VALID,916.62,VALID,0,VALID,92.1519,VALID,0,VALID,18.9048,VALID,130,VALID,0,
2013-10-01, 01:38:04,VALID,916.609,VALID,0,VALID,92.2433,VALID,0,VALID,18.8449,VALID,120,VALID,0,
2013-10-01, 01:39:04,VALID,916.588,VALID,0,VALID,92.3882,VALID,0.107441,VALID,18.8268,VALID,123,VALID,0,
2013-10-01, 01:40:04,VALID,916.569,VALID,0,VALID,92.4492,VALID,0,VALID,18.7488,VALID,126,VALID,0,
2013-10-01, 01:41:04,VALID,916.58,VALID,0,VALID,92.6626,VALID,0,VALID,18.6889,VALID,128,VALID,0,
2013-10-01, 01:42:04,VALID,916.556,VALID,0,VALID,92.9142,VALID,0,VALID,18.6499,VALID,123,VALID,0,
2013-10-01, 01:43:04,VALID,916.515,VALID,0,VALID,93.242,VALID,0,VALID,18.6499,VALID,129,VALID,0,
2013-10-01, 01:44:04,VALID,916.544,VALID,0,VALID,93.3792,VALID,0,VALID,18.6513,VALID,123,VALID,0,
2013-10-01, 01:45:04,VALID,916.487,VALID,0,VALID,93.5241,VALID,0,VALID,18.6109,VALID,118,VALID,0,
2013-10-01, 01:46:04,VALID,916.494,VALID,0,VALID,93.6079,VALID,0,VALID,18.6109,VALID,124,VALID,0,
2013-10-01, 01:47:04,VALID,916.457,VALID,0,VALID,93.5698,VALID,0.107441,VALID,18.6319,VALID,111,VALID,0,
2013-10-01, 01:48:04,VALID,916.443,VALID,0,VALID,93.5012,VALID,0,VALID,18.6319,VALID,114,VALID,0,
2013-10-01, 01:49:04,VALID,916.412,VALID,0,VALID,93.425,VALID,0,VALID,18.6319,VALID,114,VALID,0,
2013-10-01, 01:50:04,VALID,916.389,VALID,0,VALID,93.3716,VALID,0,VALID,18.6124,VALID,115,VALID,0,
2013-10-01, 01:51:04,VALID,916.342,VALID,0,VALID,93.2268,VALID,0,VALID,18.5929,VALID,119,VALID,0,
2013-10-01, 01:52:04,VALID,916.351,VALID,0,VALID,93.0667,VALID,0,VALID,18.6124,VALID,126,VALID,0,
2013-10-01, 01:53:04,VALID,916.325,VALID,0,VALID,92.8227,VALID,0,VALID,18.5914,VALID,123,VALID,0,
2013-10-01, 01:54:04,VALID,916.318,VALID,0,VALID,92.6626,VALID,0,VALID,18.572,VALID,121,VALID,0,
2013-10-01, 01:55:04,VALID,916.314,VALID,0,VALID,92.655,VALID,0,VALID,18.5734,VALID,121,VALID,0,
2013-10-01, 01:56:04,VALID,916.298,VALID,0,VALID,92.655,VALID,0,VALID,18.5539,VALID,126,VALID,0,
2013-10-01, 01:57:04,VALID,916.311,VALID,0,VALID,92.6626,VALID,0,VALID,18.5344,VALID,132,VALID,0,
2013-10-01, 01:58:04,VALID,916.303,VALID,0,VALID,92.6397,VALID,0,VALID,18.5344,VALID,137,VALID,0,
2013-10-01, 01:59:04,VALID,916.276,VALID,0,VALID,92.6474,VALID,0,VALID,18.4745,VALID,132,VALID,0,
2013-10-01, 02:00:04,VALID,916.262,VALID,0,VALID,92.655,VALID,0,VALID,18.4954,VALID,122,VALID,0,
2013-10-01, 02:01:04,VALID,916.277,VALID,0,VALID,92.6474,VALID,0,VALID,18.455,VALID,137,VALID,0,
2013-10-01, 02:02:04,VALID,916.271,VALID,0,VALID,92.7541,VALID,0,VALID,18.4954,VALID,118,VALID,0,
2013-10-01, 02:03:04,VALID,916.294,VALID,0,VALID,92.6779,VALID,0,VALID,18.455,VALID,126,VALID,0,
2013-10-01, 02:04:04,VALID,916.261,VALID,0,VALID,92.6702,VALID,0,VALID,18.4745,VALID,126,VALID,0,
2013-10-01, 02:05:05,VALID,916.27,VALID,0,VALID,92.5559,VALID,0,VALID,18.4745,VALID,126,VALID,0,
2013-10-01, 02:06:05,VALID,916.242,VALID,0,VALID,92.4949,VALID,0.107441,VALID,18.494,VALID,114,VALID,0,
2013-10-01, 02:07:05,VALID,916.283,VALID,0,VALID,92.3501,VALID,0.107441,VALID,18.4954,VALID,110,VALID,0,
2013-10-01, 02:08:05,VALID,916.256,VALID,0,VALID,92.2128,VALID,0.107441,VALID,18.5149,VALID,112,VALID,0,
2013-10-01, 02:09:05,VALID,916.29,VALID,0,VALID,92.19,VALID,0,VALID,18.5149,VALID,116,VALID,0,
2013-10-01, 02:10:05,VALID,916.283,VALID,0,VALID,92.1595,VALID,0.107441,VALID,18.4745,VALID,116,VALID,0,
2013-10-01, 02:11:05,VALID,916.29,VALID,0,VALID,92.0756,VALID,0,VALID,18.4745,VALID,116,VALID,0,
2013-10-01, 02:12:05,VALID,916.294,VALID,0,VALID,92.007,VALID,0,VALID,18.4759,VALID,116,VALID,0,
2013-10-01, 02:13:05,VALID,916.282,VALID,0,VALID,92.068,VALID,0,VALID,18.455,VALID,116,VALID,0,
2013-10-01, 02:14:05,VALID,916.291,VALID,0,VALID,92.2052,VALID,0,VALID,18.455,VALID,115,VALID,0,
2013-10-01, 02:15:05,VALID,916.286,VALID,0,VALID,92.3424,VALID,0.107441,VALID,18.455,VALID,116,VALID,0,
2013-10-01, 02:16:05,VALID,916.303,VALID,0,VALID,92.3806,VALID,0,VALID,18.4564,VALID,116,VALID,0,
2013-10-01, 02:17:05,VALID,916.348,VALID,0,VALID,92.6321,VALID,0,VALID,18.4759,VALID,116,VALID,0,
2013-10-01, 02:18:05,VALID,916.295,VALID,0,VALID,92.777,VALID,0,VALID,18.4759,VALID,119,VALID,0,
2013-10-01, 02:19:05,VALID,916.302,VALID,0,VALID,92.8685,VALID,0,VALID,18.4759,VALID,119,VALID,0,
2013-10-01, 02:20:05,VALID,916.279,VALID,0,VALID,92.9447,VALID,0,VALID,18.4564,VALID,119,VALID,0,
2013-10-01, 02:21:05,VALID,916.231,VALID,0,VALID,92.9218,VALID,0,VALID,18.416,VALID,119,VALID,0,
2013-10-01, 02:22:05,VALID,916.262,VALID,0,VALID,92.9828,VALID,0,VALID,18.3979,VALID,119,VALID,0,
2013-10-01, 02:23:05,VALID,916.262,VALID,0,VALID,93.0743,VALID,0,VALID,18.3979,VALID,119,VALID,0,
2013-10-01, 02:24:05,VALID,916.268,VALID,0,VALID,93.0895,VALID,0,VALID,18.3589,VALID,119,VALID,0,
2013-10-01, 02:25:05,VALID,916.248,VALID,0,VALID,93.1505,VALID,0,VALID,18.3589,VALID,119,VALID,0,
2013-10-01, 02:26:05,VALID,916.262,VALID,0,VALID,93.2496,VALID,0,VALID,18.3589,VALID,108,VALID,0,
2013-10-01, 02:27:05,VALID,916.217,VALID,0,VALID,93.1963,VALID,0,VALID,18.3603,VALID,102,VALID,0,
2013-10-01, 02:28:05,VALID,916.205,VALID,0,VALID,93.303,VALID,0,VALID,18.3199,VALID,92,VALID,0,
2013-10-01, 02:29:05,VALID,916.225,VALID,0,VALID,93.4021,VALID,0,VALID,18.2601,VALID,89,VALID,0,
2013-10-01, 02:30:05,VALID,916.193,VALID,0,VALID,93.5164,VALID,0,VALID,18.2615,VALID,85,VALID,0,
2013-10-01, 02:31:05,VALID,916.222,VALID,0,VALID,93.6994,VALID,0,VALID,18.2225,VALID,85,VALID,0,
2013-10-01, 02:32:05,VALID,916.202,VALID,0,VALID,93.9129,VALID,0,VALID,18.242,VALID,85,VALID,0,
2013-10-01, 02:33:05,VALID,916.188,VALID,0,VALID,93.9815,VALID,0,VALID,18.2211,VALID,85,VALID,0,
2013-10-01, 02:34:05,VALID,916.175,VALID,0,VALID,94.012,VALID,0,VALID,18.2225,VALID,91,VALID,0,
2013-10-01, 02:35:05,VALID,916.165,VALID,0,VALID,94.0196,VALID,0,VALID,18.242,VALID,102,VALID,0,
2013-10-01, 02:36:05,VALID,916.151,VALID,0,VALID,93.9815,VALID,0,VALID,18.203,VALID,109,VALID,0,
2013-10-01, 02:37:05,VALID,916.151,VALID,0,VALID,94.012,VALID,0,VALID,18.203,VALID,118,VALID,0,
2013-10-01, 02:38:05,VALID,916.163,VALID,0,VALID,94.2026,VALID,0,VALID,18.203,VALID,118,VALID,0,
2013-10-01, 02:39:05,VALID,916.157,VALID,0,VALID,94.3169,VALID,0,VALID,18.2225,VALID,110,VALID,0,
2013-10-01, 02:40:05,VALID,916.184,VALID,0,VALID,94.4541,VALID,0,VALID,18.2615,VALID,107,VALID,0,
2013-10-01, 02:41:05,VALID,916.185,VALID,0,VALID,94.3931,VALID,0,VALID,18.2615,VALID,107,VALID,0,
2013-10-01, 02:42:05,VALID,916.156,VALID,0,VALID,94.4465,VALID,0,VALID,18.3199,VALID,107,VALID,0,
2013-10-01, 02:43:05,VALID,916.167,VALID,0,VALID,94.3093,VALID,0,VALID,18.3394,VALID,107,VALID,0,
2013-10-01, 02:44:05,VALID,916.159,VALID,0,VALID,94.0501,VALID,0,VALID,18.3589,VALID,108,VALID,0,
2013-10-01, 02:45:05,VALID,916.157,VALID,0,VALID,93.7223,VALID,0,VALID,18.2809,VALID,140,VALID,0,
2013-10-01, 02:46:05,VALID,916.182,VALID,0,VALID,93.9815,VALID,0,VALID,18.2809,VALID,135,VALID,0,
2013-10-01, 02:47:05,VALID,916.173,VALID,0,VALID,94.073,VALID,0,VALID,18.2809,VALID,134,VALID,0,
2013-10-01, 02:48:05,VALID,916.182,VALID,0,VALID,94.1111,VALID,0,VALID,18.2809,VALID,134,VALID,0,
2013-10-01, 02:49:05,VALID,916.183,VALID,0,VALID,94.1492,VALID,0,VALID,18.2615,VALID,134,VALID,0,
2013-10-01, 02:50:05,VALID,916.198,VALID,0,VALID,94.2178,VALID,0,VALID,18.2809,VALID,146,VALID,0,
2013-10-01, 02:51:05,VALID,916.189,VALID,0,VALID,94.2559,VALID,0,VALID,18.2809,VALID,144,VALID,0,
2013-10-01, 02:52:05,VALID,916.195,VALID,0,VALID,94.3398,VALID,0,VALID,18.3004,VALID,140,VALID,0,
2013-10-01, 02:53:05,VALID,916.201,VALID,0,VALID,94.3321,VALID,0,VALID,18.3979,VALID,126,VALID,0,
2013-10-01, 02:54:05,VALID,916.173,VALID,0,VALID,94.0653,VALID,0,VALID,18.5149,VALID,124,VALID,0,
2013-10-01, 02:55:05,VALID,916.175,VALID,0,VALID,93.646,VALID,0,VALID,18.6124,VALID,124,VALID,0,
2013-10-01, 02:56:05,VALID,916.191,VALID,0,VALID,93.1581,VALID,0,VALID,18.6903,VALID,124,VALID,0,
2013-10-01, 02:57:05,VALID,916.171,VALID,0,VALID,92.7236,VALID,0,VALID,18.7293,VALID,124,VALID,0,
2013-10-01, 02:58:05,VALID,916.188,VALID,0,VALID,92.3043,VALID,0,VALID,18.7683,VALID,124,VALID,0,
2013-10-01, 02:59:05,VALID,916.161,VALID,0,VALID,91.8317,VALID,0,VALID,18.7878,VALID,126,VALID,0,
2013-10-01, 03:00:05,VALID,916.147,VALID,0,VALID,91.5953,VALID,0,VALID,18.7878,VALID,131,VALID,0,
2013-10-01, 03:01:05,VALID,916.17,VALID,0,VALID,91.4276,VALID,0,VALID,18.8268,VALID,131,VALID,0,
2013-10-01, 03:02:05,VALID,916.175,VALID,0,VALID,91.2218,VALID,0,VALID,18.8073,VALID,132,VALID,0,
2013-10-01, 03:03:05,VALID,916.168,VALID,0,VALID,91.1456,VALID,0,VALID,18.7488,VALID,139,VALID,0,
2013-10-01, 03:04:05,VALID,916.122,VALID,0,VALID,91.4276,VALID,0,VALID,18.6708,VALID,136,VALID,0,
2013-10-01, 03:05:05,VALID,916.117,VALID,0,VALID,91.8164,VALID,0,VALID,18.6513,VALID,133,VALID,0,
2013-10-01, 03:06:05,VALID,916.103,VALID,0,VALID,91.9841,VALID,0,VALID,18.5734,VALID,131,VALID,0,
2013-10-01, 03:07:05,VALID,916.12,VALID,0,VALID,92.1823,VALID,0,VALID,18.5135,VALID,116,VALID,0,
2013-10-01, 03:08:05,VALID,916.096,VALID,0,VALID,92.3196,VALID,0,VALID,18.4745,VALID,117,VALID,0,
2013-10-01, 03:09:05,VALID,916.131,VALID,0,VALID,92.5406,VALID,0,VALID,18.4369,VALID,117,VALID,0,
2013-10-01, 03:10:05,VALID,916.122,VALID,0,VALID,92.7922,VALID,0,VALID,18.377,VALID,120,VALID,0,
2013-10-01, 03:11:05,VALID,916.095,VALID,0,VALID,92.9523,VALID,0,VALID,18.3589,VALID,129,VALID,0,
2013-10-01, 03:12:05,VALID,916.097,VALID,0,VALID,93.1734,VALID,0,VALID,18.3199,VALID,134,VALID,0,
2013-10-01, 03:13:05,VALID,916.083,VALID,0,VALID,93.3411,VALID,0,VALID,18.2809,VALID,134,VALID,0,
2013-10-01, 03:14:05,VALID,916.066,VALID,0,VALID,93.6079,VALID,0.107441,VALID,18.2406,VALID,135,VALID,0,
2013-10-01, 03:15:05,VALID,916.085,VALID,0,VALID,93.8443,VALID,0,VALID,18.2225,VALID,138,VALID,0,
2013-10-01, 03:16:05,VALID,916.071,VALID,0,VALID,93.9662,VALID,0,VALID,18.203,VALID,134,VALID,0,
2013-10-01, 03:17:05,VALID,916.101,VALID,0,VALID,94.0425,VALID,0,VALID,18.164,VALID,138,VALID,0,
2013-10-01, 03:18:05,VALID,916.076,VALID,0,VALID,94.0501,VALID,0,VALID,18.125,VALID,138,VALID,0,
2013-10-01, 03:19:05,VALID,916.112,VALID,0,VALID,94.2102,VALID,0,VALID,18.1055,VALID,139,VALID,0,
2013-10-01, 03:20:05,VALID,916.09,VALID,0,VALID,94.4313,VALID,0,VALID,18.1055,VALID,134,VALID,0,
2013-10-01, 03:21:05,VALID,916.094,VALID,0,VALID,94.6523,VALID,0,VALID,18.125,VALID,132,VALID,0,
2013-10-01, 03:22:05,VALID,916.11,VALID,0,VALID,94.6371,VALID,0,VALID,18.125,VALID,114,VALID,0,
2013-10-01, 03:23:05,VALID,916.095,VALID,0,VALID,94.6447,VALID,0,VALID,18.125,VALID,115,VALID,0,
2013-10-01, 03:24:05,VALID,916.08,VALID,0,VALID,94.6218,VALID,0,VALID,18.125,VALID,117,VALID,0,
2013-10-01, 03:25:05,VALID,916.107,VALID,0,VALID,94.5456,VALID,0,VALID,18.086,VALID,115,VALID,0,
2013-10-01, 03:26:05,VALID,916.067,VALID,0,VALID,94.6218,VALID,0,VALID,18.1055,VALID,129,VALID,0,
2013-10-01, 03:27:05,VALID,916.052,VALID,0,VALID,94.599,VALID,0,VALID,18.086,VALID,122,VALID,0,
2013-10-01, 03:28:05,VALID,916.015,VALID,0,VALID,94.599,VALID,0,VALID,18.1055,VALID,121,VALID,0,
2013-10-01, 03:29:05,VALID,916.003,VALID,0,VALID,94.5227,VALID,0,VALID,18.1055,VALID,121,VALID,0,
2013-10-01, 03:30:05,VALID,915.979,VALID,0,VALID,94.5075,VALID,0,VALID,18.125,VALID,129,VALID,0,
2013-10-01, 03:31:05,VALID,915.968,VALID,0,VALID,94.4694,VALID,0,VALID,18.164,VALID,124,VALID,0,
2013-10-01, 03:32:05,VALID,915.974,VALID,0,VALID,94.3245,VALID,0,VALID,18.164,VALID,132,VALID,0,
2013-10-01, 03:33:05,VALID,915.949,VALID,0,VALID,94.2102,VALID,0,VALID,18.1835,VALID,125,VALID,0,
2013-10-01, 03:34:05,VALID,916,VALID,0,VALID,94.0577,VALID,0,VALID,18.164,VALID,117,VALID,0,
2013-10-01, 03:35:05,VALID,916.002,VALID,0,VALID,93.8366,VALID,0,VALID,18.125,VALID,123,VALID,0,
2013-10-01, 03:36:05,VALID,915.986,VALID,0,VALID,93.9891,VALID,0,VALID,18.125,VALID,124,VALID,0,
2013-10-01, 03:37:05,VALID,915.977,VALID,0,VALID,93.9052,VALID,0,VALID,18.0846,VALID,121,VALID,0,
2013-10-01, 03:38:05,VALID,915.99,VALID,0,VALID,93.9052,VALID,0,VALID,18.086,VALID,115,VALID,0,
2013-10-01, 03:39:05,VALID,915.985,VALID,0,VALID,93.8747,VALID,0,VALID,18.0665,VALID,120,VALID,0,
2013-10-01, 03:40:05,VALID,915.988,VALID,0,VALID,93.8595,VALID,0,VALID,18.086,VALID,130,VALID,0,
2013-10-01, 03:41:05,VALID,915.992,VALID,0,VALID,93.7604,VALID,0,VALID,18.086,VALID,139,VALID,0,
2013-10-01, 03:42:05,VALID,916.015,VALID,0,VALID,93.6384,VALID,0,VALID,18.0665,VALID,138,VALID,0,
2013-10-01, 03:43:05,VALID,916.013,VALID,0,VALID,93.5698,VALID,0,VALID,18.086,VALID,115,VALID,0,
2013-10-01, 03:44:05,VALID,915.995,VALID,0,VALID,93.5012,VALID,0,VALID,18.1055,VALID,120,VALID,0,
2013-10-01, 03:45:05,VALID,915.99,VALID,0,VALID,93.4478,VALID,0,VALID,18.125,VALID,125,VALID,0,
2013-10-01, 03:46:05,VALID,915.993,VALID,0,VALID,93.4173,VALID,0,VALID,18.1835,VALID,120,VALID,0,
2013-10-01, 03:47:05,VALID,915.969,VALID,0,VALID,93.2572,VALID,0,VALID,18.1835,VALID,132,VALID,0,
2013-10-01, 03:48:05,VALID,915.98,VALID,0,VALID,93.1734,VALID,0,VALID,18.1835,VALID,134,VALID,0,
2013-10-01, 03:49:05,VALID,915.983,VALID,0,VALID,93.059,VALID,0,VALID,18.1835,VALID,137,VALID,0,
2013-10-01, 03:50:05,VALID,915.986,VALID,0,VALID,92.9218,VALID,0,VALID,18.1835,VALID,137,VALID,0,
2013-10-01, 03:51:05,VALID,915.985,VALID,0,VALID,92.9066,VALID,0,VALID,18.1849,VALID,137,VALID,0,
2013-10-01, 03:52:05,VALID,915.957,VALID,0,VALID,92.8685,VALID,0,VALID,18.1835,VALID,136,VALID,0,
2013-10-01, 03:53:05,VALID,915.951,VALID,0,VALID,92.8075,VALID,0.107441,VALID,18.1431,VALID,136,VALID,0,
2013-10-01, 03:54:05,VALID,915.975,VALID,0,VALID,92.8075,VALID,0,VALID,18.1236,VALID,136,VALID,0,
2013-10-01, 03:55:05,VALID,915.971,VALID,0,VALID,93.1048,VALID,0,VALID,18.1041,VALID,136,VALID,0,
2013-10-01, 03:56:05,VALID,915.983,VALID,0,VALID,93.2115,VALID,0.107441,VALID,18.1041,VALID,136,VALID,0,
2013-10-01, 03:57:05,VALID,916.035,VALID,0,VALID,93.2039,VALID,0.107441,VALID,18.086,VALID,140,VALID,0,
2013-10-01, 03:58:05,VALID,916.038,VALID,0,VALID,93.181,VALID,0.107441,VALID,18.0846,VALID,140,VALID,0,